Theta_e
319 317 318 316 315 315 315 314 316 317 317 316 314 315 315 317 317 317 316 315 315 315 315 319 321 335 346 346 346 343 337 337 336 339 342 339 339 334 336 344 339 334 337 338
319 321 318 317 316 316 315 314 314 317 319 317 317 317 319 319 318 317 317 318 315 316 316 316 333 336 349 346 344 338 333 335 337 339 335 333 337 333 335 346 344 339 333 333
320 321 320 318 315 316 314 313 314 316 318 319 320 320 321 322 321 321 320 319 317 315 315 316 335 342 346 349 350 346 345 342 344 338 343 343 342 347 348 344 346 346 342 339
321 321 320 317 315 314 314 314 316 317 318 320 319 318 321 321 320 321 319 316 317 318 316 316 337 340 348 344 352 354 352 349 348 350 348 347 347 347 346 346 347 347 346 344
324 321 320 316 314 314 314 316 316 317 319 320 319 317 318 321 322 321 319 318 317 316 316 317 331 339 346 347 350 351 349 350 348 347 345 346 345 344 344 344 337 332 330 330
322 319 317 316 315 314 314 316 317 317 316 318 319 320 319 322 322 321 320 319 319 319 317 315 331 336 341 340 343 348 347 348 347 347 347 345 338 334 335 333 332 332 331 328
321 319 319 318 316 314 314 314 320 320 318 319 318 319 318 323 324 323 321 320 319 326 321 324 331 332 342 340 341 340 337 334 336 336 334 333 335 332 330 330 326 325 327 329
322 323 319 319 316 315 313 317 319 321 321 319 319 319 319 321 322 323 323 320 326 328 329 330 332 340 339 336 335 332 329 328 328 326 325 324 326 324 323 323 323 321 320 320
321 322 319 318 317 316 317 318 317 320 325 324 321 319 325 324 325 323 325 324 325 328 329 331 337 336 334 333 331 329 328 326 324 323 322 322 322 322 321 320 318 320 321 320
320 322 320 318 317 319 318 317 319 318 325 327 324 325 329 329 326 327 325 325 331 331 332 333 332 331 330 329 328 326 325 323 322 323 321 321 321 320 320 320 319 319 319 319
323 324 324 323 322 320 319 320 318 318 322 324 327 335 330 330 325 327 328 328 330 330 330 328 326 325 324 325 324 323 322 321 321 319 319 319 319 318 318 318 318 318 318 318
323 324 326 323 322 322 323 317 319 324 325 323 324 334 328 328 328 327 327 329 329 327 328 326 324 324 324 324 323 321 322 320 318 317 317 317 317 317 317 317 317 317 317 317
326 325 326 326 322 321 325 322 319 319 326 328 330 330 327 329 328 331 329 326 327 329 327 326 323 321 320 319 318 316 315 315 315 315 315 314 314 314 315 315 315 315 315 315
324 325 323 325 323 325 325 323 319 320 326 327 328 331 329 329 329 329 328 327 327 326 326 320 317 316 316 315 315 314 314 314 314 313 313 313 313 313 313 314 314 315 315 315
326 328 326 326 327 328 326 324 319 322 327 328 330 329 328 327 328 327 327 326 326 325 323 318 316 315 315 314 314 314 313 313 312 312 312 312 312 312 312 312 313 313 312 312
324 327 325 327 324 328 328 326 323 327 327 328 329 328 326 326 327 328 327 325 325 325 319 317 316 315 314 313 313 312 312 311 311 312 311 311 311 310 309 308 308 308 308 308
324 328 326 331 327 326 328 327 328 329 326 327 329 327 324 326 326 326 327 324 323 319 317 316 314 313 312 311 310 310 309 310 310 309 308 307 306 305 304 304 304 304 304 304
328 328 327 325 322 331 327 326 327 328 328 328 327 327 323 323 322 322 321 319 317 314 313 313 312 310 308 306 306 306 306 305 306 304 303 302 302 302 302 302 302 302 302 303
324 326 330 327 326 328 329 329 327 329 328 326 326 325 323 319 317 317 315 314 313 312 311 309 307 305 303 303 303 303 303 303 302 300 299 299 299 299 300 300 300 300 300 300
319 328 326 327 330 331 324 321 322 322 328 324 323 322 320 319 319 317 314 311 311 310 308 306 304 303 302 301 301 300 300 300 298 298 297 297 296 297 298 299 299 299 300 300
327 327 327 326 329 328 323 322 321 326 328 322 320 320 318 318 315 312 311 310 308 308 307 305 303 302 300 298 297 297 296 295 295 296 295 295 295 296 297 297 298 299 299 300
325 325 325 327 328 327 324 326 328 325 321 319 318 317 315 313 312 311 309 308 307 307 307 305 303 301 299 297 295 294 294 293 293 293 294 294 294 295 296 296 297 297 299 301
324 324 324 326 326 324 323 323 320 319 319 318 317 315 313 312 311 309 306 304 305 306 305 305 303 301 299 298 295 294 293 292 292 293 293 294 294 294 295 296 296 297 298 299
324 324 324 325 324 321 320 318 317 316 315 314 313 312 310 308 306 305 304 304 303 303 303 302 300 300 300 298 296 294 293 293 292 292 292 292 293 293 294 294 295 296 297 298
321 323 324 323 322 320 319 317 316 315 313 311 309 308 306 305 304 304 303 303 302 302 301 299 299 298 297 296 295 295 294 294 293 292 291 291 291 292 293 293 294 295 296 296
321 322 323 324 320 319 318 316 315 312 309 306 305 304 304 303 303 302 301 302 301 301 300 299 298 297 296 295 295 294 294 295 293 291 290 290 291 292 292 293 294 295 296 298
Wind_Speed
18 10 17 15 15 10 14 15 15 10 17 17 20 19 18 14 9 9 8 9 11 11 9 21 14 22 28 28 24 22 22 31 29 21 17 15 19 16 13 20 12 6 14 14
13 22 15 13 16 18 19 20 18 14 17 15 16 13 9 9 10 11 12 9 10 7 8 9 20 27 29 33 31 32 29 37 25 20 20 19 24 21 21 17 10 7 5 13
23 11 19 19 20 21 21 21 16 14 17 16 8 6 6 6 6 8 11 9 8 11 11 9 14 22 30 31 35 35 36 39 33 30 25 21 17 17 20 19 19 14 18 18
24 19 21 25 22 20 19 20 21 19 15 5 7 4 6 8 11 9 8 9 8 8 9 8 18 18 24 32 36 38 38 35 32 34 34 34 30 20 25 25 20 18 20 20
23 23 24 22 25 21 19 17 20 19 9 4 8 4 6 6 14 19 10 9 9 10 10 10 20 25 32 32 35 34 33 27 23 23 23 22 15 12 18 18 18 18 18 16
22 16 20 24 19 24 19 16 15 9 2 4 6 5 7 2 8 10 10 10 10 9 10 11 23 28 27 24 29 25 24 20 19 19 18 14 23 26 27 22 17 10 8 7
19 26 21 20 19 18 20 11 5 3 6 4 7 5 7 5 2 9 8 9 10 6 8 9 17 14 24 27 32 27 28 23 20 21 22 21 26 26 24 22 20 15 14 11
16 16 25 22 26 16 15 10 5 6 4 4 7 7 13 9 6 8 2 10 11 13 16 14 13 18 26 27 32 29 27 25 21 21 21 20 19 19 17 15 11 9 5 3
15 24 13 22 20 20 8 10 9 7 3 3 3 6 3 5 10 8 8 9 9 12 15 17 16 21 24 27 28 26 25 23 19 17 16 15 14 12 10 7 6 4 1 4
11 8 21 20 19 13 11 7 7 4 6 3 6 3 2 9 10 12 21 7 12 14 17 18 16 20 24 29 31 27 22 19 16 15 15 14 13 11 9 7 5 4 5 7
8 1 3 12 6 8 8 8 6 6 6 6 3 2 3 2 6 8 10 19 8 12 18 19 16 25 28 30 26 20 16 14 14 12 11 10 9 7 6 7 7 8 10 11
10 3 6 12 4 13 12 8 7 5 4 3 6 3 3 5 2 10 7 13 21 26 16 18 17 21 23 21 19 15 11 13 14 13 10 9 8 7 8 9 9 11 12 14
2 7 4 3 4 11 6 13 7 7 4 3 3 4 3 4 10 7 8 13 23 21 15 12 12 9 18 20 21 22 21 19 16 15 13 13 12 11 11 13 14 16 18 17
8 6 8 7 10 3 5 13 9 9 5 2 0 5 4 5 11 7 15 16 18 10 11 10 15 14 21 24 25 22 21 18 15 13 13 12 12 13 14 14 15 15 15 14
5 4 5 3 5 2 6 12 16 18 8 8 9 10 7 6 8 11 14 18 20 17 10 12 13 12 20 23 25 21 20 18 16 14 13 13 13 14 14 16 16 14 13 14
3 2 4 5 2 2 7 12 9 16 11 11 6 5 4 6 7 11 13 17 14 11 17 17 15 15 19 20 22 21 19 18 16 14 15 15 15 16 17 18 18 18 19 20
3 3 4 3 4 7 6 6 2 5 5 8 5 6 6 12 11 5 10 14 10 14 18 17 15 15 20 21 24 20 18 17 17 17 17 19 19 19 20 21 22 23 24 24
2 6 3 4 2 6 6 15 10 8 10 10 6 9 7 16 15 15 13 17 15 18 16 14 15 22 23 25 22 17 18 19 19 18 20 21 21 21 21 21 20 20 19 18
1 2 5 4 2 6 5 17 14 15 6 11 16 18 24 22 24 17 18 19 16 16 16 22 25 23 25 22 18 16 17 17 16 19 19 19 20 20 19 18 19 20 20 24
10 3 4 4 4 3 2 7 17 14 11 6 28 23 25 20 14 9 14 16 16 22 23 23 24 23 20 17 16 16 16 14 17 17 18 19 20 20 18 19 20 20 22 22
1 8 9 9 3 3 6 8 7 7 4 14 18 15 16 15 12 14 16 14 18 21 23 23 20 18 18 18 19 19 17 17 18 17 18 19 18 17 16 18 18 18 20 21
4 4 4 4 4 2 6 7 6 11 14 19 20 22 22 20 18 16 13 11 10 13 18 20 19 20 18 18 21 17 16 18 17 18 18 18 18 17 15 17 18 19 18 17
4 4 4 4 4 7 15 16 12 18 18 16 17 16 19 19 16 14 12 10 10 17 19 21 21 18 13 13 15 16 18 19 20 18 18 18 17 16 18 16 17 16 15 15
6 7 8 8 11 16 19 18 18 18 17 16 17 17 17 17 14 13 11 9 10 18 19 22 20 17 14 14 15 11 17 21 22 22 19 18 18 18 17 18 16 16 16 16
2 5 12 18 15 16 15 16 16 15 16 18 17 17 17 16 13 12 10 10 15 19 20 19 16 15 16 16 16 17 19 21 21 22 20 18 19 19 20 19 18 17 16 15
4 7 7 6 7 14 13 10 16 18 17 17 18 17 15 16 13 13 10 17 19 17 18 16 15 16 16 16 15 17 17 17 21 22 22 20 20 18 18 19 21 20 19 18
Wind_Direction
215 219 220 216 226 225 251 241 222 231 240 226 234 232 216 217 223 235 245 206 200 209 203 191 194 160 150 156 158 157 161 162 173 182 191 203 202 191 200 239 242 238 215 215
215 225 222 224 229 229 241 246 254 261 244 217 242 207 199 203 214 215 228 217 198 188 171 186 149 147 150 156 152 159 161 173 193 196 190 193 201 193 210 223 222 195 231 204
210 211 210 221 227 224 231 242 248 250 267 253 160 205 197 231 238 232 222 191 176 186 181 183 147 156 144 145 156 166 172 176 183 188 185 190 177 195 196 196 197 199 192 199
223 222 211 217 229 219 233 230 244 255 264 269 130 236 228 232 243 245 203 156 171 174 176 179 152 152 151 155 153 158 168 173 184 194 178 170 178 176 182 192 192 171 200 189
217 202 226 213 222 229 232 232 229 241 251 213 283 132 257 262 263 223 192 173 183 207 189 172 157 157 160 158 156 154 163 166 173 178 182 174 160 166 161 158 145 140 156 149
223 219 222 230 215 223 236 234 246 231 177 259 234 144 271 258 232 190 171 173 190 208 192 166 161 153 156 138 145 140 144 141 165 164 164 158 140 139 138 132 136 145 162 141
223 223 234 231 232 216 221 225 216 216 222 206 205 263 220 238 173 103 183 184 192 118 150 133 130 111 104 101 106 110 107 96 104 112 112 118 124 123 124 125 121 121 115 110
216 225 218 218 225 216 217 188 147 180 176 213 229 220 234 209 195 116 121 170 123 105 102 95 106 107 107 104 105 104 103 99 99 98 92 100 93 103 107 111 110 105 96 64
204 241 217 226 225 221 196 202 184 127 26 60 262 245 36 104 44 51 101 107 115 113 108 112 108 105 105 105 106 106 103 99 98 101 101 98 97 103 94 87 87 82 8 308
241 226 239 226 231 209 188 180 189 199 143 161 265 176 105 356 52 29 25 102 117 113 99 98 95 91 93 103 108 105 101 101 101 95 94 85 84 74 56 41 37 10 328 316
301 193 299 333 241 173 221 196 188 142 142 174 202 230 210 5 42 62 39 48 31 116 101 98 91 89 90 94 99 103 107 109 106 90 88 75 62 47 27 8 -0 347 331 326
226 46 210 210 321 309 316 176 229 129 211 208 156 207 353 274 102 71 54 58 39 349 107 104 105 103 100 102 93 90 112 101 90 87 76 70 57 33 3 345 334 325 318 315
303 173 136 68 294 263 252 259 168 157 84 188 128 233 168 88 68 83 64 71 67 341 80 104 102 89 87 91 84 69 62 59 56 50 43 36 26 9 353 340 332 325 325 321
287 213 173 197 177 152 239 251 188 167 120 206 256 174 205 135 123 93 101 101 105 83 357 76 81 81 77 72 66 56 44 45 37 29 21 12 0 350 343 335 329 325 316 303
240 190 109 198 127 11 254 239 226 192 159 142 172 152 165 135 133 139 119 126 121 132 134 99 88 78 70 61 54 46 39 28 17 9 1 359 355 352 351 351 350 347 343 333
243 195 117 191 243 315 288 287 255 134 127 108 107 71 124 106 88 139 144 136 147 147 110 91 80 71 66 58 55 42 24 12 1 357 358 354 2 2 359 353 346 338 328 324
200 164 129 101 2 355 275 210 337 110 112 136 117 157 117 85 76 75 126 142 137 97 87 84 78 71 62 59 47 32 16 4 5 6 11 10 3 355 351 343 338 332 326 322
219 169 84 93 121 197 299 313 219 97 95 86 88 215 174 94 77 88 79 100 95 85 82 80 75 67 55 46 35 20 12 10 7 13 10 1 349 345 338 335 330 324 320 314
120 185 123 121 238 99 220 218 139 147 155 184 203 125 115 107 93 72 79 78 80 80 77 76 71 67 54 37 22 17 13 5 12 6 357 349 342 335 330 327 322 317 315 310
308 152 111 143 78 58 198 40 107 90 43 55 124 132 132 118 99 111 97 90 82 83 84 83 74 63 51 32 24 22 11 15 4 352 344 335 329 331 320 318 316 310 312 308
168 144 120 91 108 352 6 8 2 68 134 84 98 114 105 98 106 111 98 93 89 95 95 92 87 83 63 41 34 27 15 1 344 339 333 329 326 321 320 319 317 311 309 309
44 79 88 65 97 82 348 27 81 118 95 97 97 107 105 105 102 99 96 98 105 100 111 112 105 91 67 49 42 31 12 349 342 338 331 329 334 325 322 322 323 322 314 313
43 100 122 122 124 85 73 93 96 105 108 106 106 102 105 106 106 104 101 92 91 87 85 87 103 96 74 52 41 33 8 3 358 345 339 336 335 335 332 329 329 327 326 322
65 70 111 91 80 89 88 84 87 90 92 94 93 97 96 98 95 95 94 89 81 75 73 72 69 67 67 64 39 31 12 7 6 358 350 348 343 343 343 342 337 329 324 321
87 101 100 102 99 92 84 95 100 96 94 90 86 92 97 95 88 90 86 83 80 78 78 74 71 67 74 58 37 18 11 1 360 356 355 352 351 348 344 344 336 328 327 324
35 122 117 121 120 117 117 111 100 95 92 90 91 87 82 90 88 79 73 82 83 79 77 68 58 72 65 49 35 20 14 2 10 4 3 360 352 345 344 342 341 355 357 6